Regional Weather Roundup
Issued by NWS

Home | Current Version | Previous Version | Text Only | Print | Product List | Glossary On
Versions: 1 2 3 4 5 6 7 8 9 10 11 12 13 14 15 16 17 18 19 20 21 22 23 24 25 26 27 28 29 30 31 32 33 34 35 36 37 38 39 40 41 42 43 44 45 46 47 48 49 50
000
ASUS44 KBMX 051710
RWRAL

ALABAMA REGIONAL WEATHER ROUNDUP
NATIONAL WEATHER SERVICE BIRMINGHAM AL
1200 PM CDT SAT SEP 05 2015

NOTE: "FAIR" INDICATES FEW OR NO CLOUDS BELOW 12,000 FEET
WITH NO SIGNIFICANT WEATHER AND/OR OBSTRUCTIONS TO VISIBILITY.

THE REMARK "TC" DENOTES TEMPERATURE IN DEGREES CELSIUS.

ALZ001>011-014-016>018-020-051800-
NORTH ALABAMA

CITY           SKY/WX    TMP DP  RH WIND       PRES   REMARKS
MUSCLE SHOALS  SUNNY     91  68  46 CALM      30.10F HX  95
HUNTSVILLE     SUNNY     87  72  60 SE7       30.10F HX  93
DECATUR        SUNNY     86  73  65 E6        30.10F HX  93
HALEYVILLE     FAIR      90  71  53 S3        30.12F HX  96
GADSDEN        SUNNY     86  70  58 NE10      30.10S HX  90
$$

ALZ012-013-022-023-030>036-040>044-051800-
WEST CENTRAL ALABAMA

CITY           SKY/WX    TMP DP  RH WIND       PRES   REMARKS
TUSCALOOSA     SUNNY     92  69  47 VRB3      30.06F HX  97
$$

ALZ015-024>027-033>036-040>044-051800-
CENTRAL ALABAMA

CITY           SKY/WX    TMP DP  RH WIND       PRES   REMARKS
BIRMINGHAM     SUNNY     89  73  59 E6        30.10F HX  97
MONTGOMERY     SUNNY     93  71  48 NE12      30.05F HX 100
SHELBY CO ARPT SUNNY     88  72  58 CALM      30.08F HX  94
MAXWELL AFB    SUNNY     90  73  57 E9        30.05F HX  98
GREENVILLE     FAIR      92  69  47 SE6       30.04F HX  97
$$

ALZ019-021-028-029-037-038-045>048-051800-
EAST CENTRAL ALABAMA

CITY           SKY/WX    TMP DP  RH WIND       PRES   REMARKS
ANNISTON       SUNNY     87  70  56 E8        30.10F HX  92
ALEXANDER CITY SUNNY     89  74  61 SE7       30.10F HX  98
AUBURN         SUNNY     86  73  65 E9        30.11F HX  93
$$

ALZ051>064-051800-
SOUTHWEST ALABAMA

CITY           SKY/WX    TMP DP  RH WIND       PRES   REMARKS
MOBILE         PTSUNNY   92  72  51 CALM      30.03F HX  99
BROOKLEY FIELD MOSUNNY   92  75  57 E8        30.03F HX 103
EVERGREEN      SUNNY     93  71  48 VRB3      30.03F HX 100
$$

ALZ049-050-065>069-051800-
SOUTHEAST ALABAMA

CITY           SKY/WX    TMP DP  RH WIND       PRES   REMARKS
DOTHAN         SUNNY     88  74  63 NE10      30.08F HX  96
OZARK          SUNNY     89  74  62 E10       30.04F HX  97
TROY           MOSUNNY   92  72  51 E8        30.06F HX  99
EUFAULA        FAIR      92  74  55 E12       30.05F HX 101
$$


USA.gov is the U.S. government's official web portal to all federal, state and local government web resources and services.